EW6418 Weather Reports


time (UTC)temp
C
wind
direction
speed
KPH
gust
KPH
rain 1hr
cm
rain 24hr
cm
rain mn
cm
humidity
%
barometer
mb
20260503054534 0 360 0.0 0.0 0.00 0.00 0.00 100 1024.6
20260503053027 0 360 0.0 0.0 0.00 0.00 0.00 100 1024.6
20260503051525 1 360 0.0 1.6 0.00 0.00 0.00 100 1024.7
20260503050034 1 360 0.0 0.0 0.00 0.00 0.00 100 1024.8
20260503044522 1 360 0.0 0.0 0.00 0.00 0.00 100 1024.7
20260503043021 1 360 0.0 0.0 0.00 0.00 0.00 100 1024.6
20260503041527 1 360 0.0 0.0 0.00 0.00 0.00 100 1024.6
20260503040017 1 360 0.0 0.0 0.00 0.00 0.00 100 1024.6
20260503034517 1 360 0.0 0.0 0.00 0.00 0.00 100 1024.7
20260503033016 2 360 0.0 0.0 0.00 0.00 0.00 100 1024.7
20260503031516 2 360 0.0 0.0 0.00 0.00 0.00 100 1024.7
20260503030017 2 360 0.0 0.0 0.00 0.00 0.00 100 1024.7
20260503024514 3 360 0.0 0.0 0.00 0.00 0.00 100 1024.7
20260503023013 3 360 0.0 0.0 0.00 0.00 0.00 100 1024.6
20260503021520 4 360 0.0 0.0 0.00 0.00 0.00 100 1024.5
20260503020110 5 360 0.0 0.0 0.00 0.00 0.00 100 1024.4
20260503014508 5 360 0.0 0.0 0.00 0.00 0.00 100 1024.2
20260503013008 6 360 0.0 0.0 0.00 0.00 0.00 100 1024.1
20260503011508 6 360 0.0 0.0 0.00 0.00 0.00 100 1023.9
20260503010007 6 360 0.0 4.8 0.00 0.00 0.00 100 1023.9
20260503004507 6 360 0.0 3.2 0.00 0.00 0.00 100 1023.7
20260503003007 7 360 1.6 4.8 0.00 0.00 0.00 100 1023.6
20260503001511 7 360 1.6 4.8 0.00 0.00 0.00 100 1023.5
20260503000005 7 360 1.6 8.0 0.00 0.00 0.00 100 1023.3
20260502234505 8 360 3.2 6.4 0.00 0.00 0.00 100 1023.2
20260502233004 8 136 3.2 11.3 0.00 0.00 0.00 100 1023.1
20260502231504 8 360 1.6 9.7 0.00 0.00 0.00 100 1023.1
20260502230007 8 360 3.2 12.9 0.00 0.00 0.00 100 1023.1
20260502224505 8 360 1.6 14.5 0.00 0.00 0.00 100 1023.1
20260502223002 9 90 4.8 14.5 0.00 0.00 0.00 100 1022.9
20260502221502 10 130 3.2 6.4 0.00 0.00 0.00 100 1022.9
20260502220002 9 119 1.6 9.7 0.00 0.00 0.00 100 1022.7
20260502214500 10 134 4.8 12.9 0.00 0.00 0.00 100 1022.7
20260502213101 10 126 4.8 12.9 0.00 0.00 0.00 100 1022.5
20260502211602 10 109 4.8 11.3 0.00 0.00 0.00 100 1022.5
20260502210115 11 106 4.8 14.5 0.00 0.00 0.00 100 1022.4
20260502204559 10 144 4.8 14.5 0.00 0.00 0.00 100 1022.4
20260502203056 10 118 3.2 9.7 0.00 0.00 0.00 100 1022.5
20260502201557 11 109 3.2 12.9 0.00 0.00 0.00 100 1022.5
20260502200054 10 111 1.6 11.3 0.00 0.00 0.00 100 1022.7
20260502194553 10 119 4.8 16.1 0.00 0.00 0.00 100 1022.8
20260502193102 10 107 4.8 17.7 0.00 0.00 0.00 100 1022.9
20260502191600 10 133 4.8 14.5 0.00 0.00 0.00 100 1023.0
20260502190106 11 140 3.2 14.5 0.00 0.00 0.00 100 1023.0
20260502184559 10 142 4.8 16.1 0.00 0.00 0.00 100 1023.1
20260502183108 11 115 3.2 12.9 0.00 0.00 0.00 100 1023.2
20260502181551 10 102 3.2 11.3 0.00 0.00 0.00 100 1023.3
20260502163053 10 116 3.2 9.7 0.00 0.00 0.00 100 1023.7
20260502161541 10 119 4.8 17.7 0.00 0.00 0.00 100 1023.9
20260502151537 9 113 6.4 12.9 0.00 0.00 0.00 100 1024.0
20260502123007 4 106 3.2 8.0 0.00 0.00 0.00 100 1023.7
20260502121505 3 135 1.6 6.4 0.00 0.00 0.00 100 1023.6
20260502114607 2 360 0.0 0.0 0.00 0.00 0.00 100 1023.2
20260502113002 2 360 0.0 0.0 0.00 0.00 0.00 100 1023.2
20260502111503 2 360 0.0 0.0 0.00 0.00 0.00 100 1023.3
20260502110001 1 360 0.0 0.0 0.00 0.00 0.00 100 1023.3
20260502104600 1 360 0.0 0.0 0.00 0.00 0.00 100 1023.2
20260502103106 1 360 0.0 0.0 0.00 0.00 0.00 100 1023.1
20260502101600 1 360 0.0 0.0 0.00 0.00 0.00 100 1023.1
20260502090113 1 360 0.0 0.0 0.00 0.00 0.00 100 1023.2
20260502070047 2 360 0.0 0.0 0.00 0.00 0.00 100 1022.9
20260502064544 2 360 0.0 1.6 0.00 0.00 0.00 100 1023.1